Details From PAOM - Nome
To UHMA - Ugolny
Flight Number -
Tags Generated
Created
Modified
Stats Distance 433 nm / 801 km
Max Altitude 0 ft / 0 m
Waypoints 3
Social Downloads 0
Likes 0
Share VATSIM

Download

Looking for another format? Having issues loading an existing format? Contact us
Advertisement - Login to hide

Notes

Generated

Route

PAOM UHMA UHMA

ID Type Via Altitude Latitude Longitude Leg Dist Tot Dist Heading (true) Name
O PAOM APT - 0 ft / 0 m 64.50723˚ -165.45178˚ - 0 nm - NOME
UHMA FIX - 0 ft / 0 m 64.73500˚ 177.73833˚ 431 nm 431 nm 279° / 264° -
O UHMA APT - 0 ft / 0 m 64.71979˚ 177.73219˚ 0 nm 432 nm 190° / 190° -

Altitude Profile

Advertisement - Login to hide

Weather


0- 5 10 15 20 25 30 35+ Temperature / ° C

Clouds and Precipitation
Forecast for 2018-05-27 00:00 UTC. Updated 5 hours ago

Ground ~20,000 ft ~40,000 ft Winds

PAOM

Details ICAO PAOM (OME)
Name NOME
Region USA (Alaska)
Timezone America/Nome (UTC-8.0)
Stats Elevation 37 ft / 11 m (AMSL)
Location 64.512227° -165.445062°
Runways 2
Magnetic Variation 9.886° E

METAR

PAOM 270353Z 29014KT 10SM BKN034 06/00 A2978

Decode

TAF

PAOM 262339Z 2700/2724 23012KT P6SM SCT030 FM270500 28011KT P6SM BKN030 FM271600 30005KT P6SM BKN050

Decode

Departure Runways

ID Width Length Bearing (true) Bearing (mag) Surface Threshold Offset Overrun Length
03 151 ft / 46 m 5,560 ft / 1,695 m 41.63° 31.74° Asphalt 0 ft / 0 m 0 ft / 0 m
10 151 ft / 46 m 5,979 ft / 1,822 m 109.76° 99.87° Asphalt 0 ft / 0 m 0 ft / 0 m
21 151 ft / 46 m 5,560 ft / 1,695 m 221.65° 211.76° Asphalt 0 ft / 0 m 0 ft / 0 m
28 151 ft / 46 m 5,979 ft / 1,822 m 289.80° 279.91° Asphalt 0 ft / 0 m 0 ft / 0 m

UHMA

Details ICAO UHMA (DYR)
Name UGOLNY
Region Russia
Timezone Asia/Anadyr (UTC+12.0)
Stats Elevation 194 ft / 59 m (AMSL)
Location 64.734950° 177.741483°
Runways 1
Magnetic Variation 1.339° E

METAR

UHMA 270400Z 14005MPS 9999 FEW013 OVC200 04/02 Q1013 RMK END R01/10005MPS MT OBSC QFE756/1008

Decode

TAF

TAF AMD UHMA 270351Z 2703/2803 12005MPS 9999 NSC

Decode

Destination Runways

ID Width Length Bearing (true) Bearing (mag) Surface Threshold Offset Overrun Length
01 197 ft / 60 m 11,439 ft / 3,487 m 14.65° 13.31° Concrete 0 ft / 0 m 240 ft / 73 m
19 197 ft / 60 m 11,439 ft / 3,487 m 194.66° 193.32° Concrete 0 ft / 0 m 240 ft / 73 m

Popular Alternatives